Zurück zum Katalog

TJS-12

AktivKommunikationGEO
NORAD 62374·PAYLOAD·🇨🇳 China

Gestartet Dec 20, 2024 von Xichang Satellite Launch Center

Loading…

TLE

AktuellSource: Space-Track

Epoche: Sep 14, 2026, 11:38 UTC

1 62374U 24246A   26257.48517015 -.00000240  00000-0  00000-0 0  9990
2 62374   0.4951 311.6410 0001248 138.3910 224.5986  1.00269129  6450

Verfolge TJS-12 in Echtzeit mit AllMySat

Download on the App Store